• En España
  • Lista de países
  • Para 7 días
  • Temperatura del agua
  • Mapa Satelital
  • El tiempo en el mapa
  • Informadores
  • user-avatar
    Iniciar sesión

    Tiempo cada hora Akaba

    Hoy, 23 Septiembre, Domingo

    Tiempo Temperatura Precipitaciones Viento Presión Humedad
    00:00 +30°C° 0 mm 2 mps 749 mmHg 48%
    01:00 +30°C° 0 mm 2 mps 749 mmHg 51%
    02:00 +29°C° 0 mm 2 mps 749 mmHg 54%
    03:00 +29°C° 0 mm 2 mps 749 mmHg 56%
    04:00 +29°C° 0 mm 2 mps 749 mmHg 57%
    05:00 +28°C° 0 mm 2 mps 749 mmHg 59%
    06:00 +29°C° 0 mm 2 mps 749 mmHg 55%
    07:00 +31°C° 0 mm 3 mps 749 mmHg 51%
    08:00 +33°C° 0 mm 3 mps 749 mmHg 47%
    09:00 +35°C° 0 mm 3 mps 749 mmHg 41%
    10:00 +36°C° 0 mm 3 mps 749 mmHg 35%
    11:00 +38°C° 0 mm 3 mps 749 mmHg 29%
    12:00 +39°C° 0 mm 3 mps 749 mmHg 26%
    13:00 +40°C° 0 mm 3 mps 748 mmHg 23%
    14:00 +42°C° 0 mm 4 mps 748 mmHg 21%
    15:00 +41°C° 0 mm 4 mps 748 mmHg 21%
    16:00 +41°C° 0 mm 4 mps 748 mmHg 22%
    17:00 +40°C° 0 mm 4 mps 748 mmHg 23%
    18:00 +38°C° 0 mm 3 mps 748 mmHg 26%
    19:00 +36°C° 0 mm 3 mps 749 mmHg 30%
    20:00 +35°C° 0 mm 2 mps 749 mmHg 33%
    21:00 +34°C° 0 mm 2 mps 749 mmHg 37%
    22:00 +32°C° 0 mm 2 mps 749 mmHg 41%
    23:00 +31°C° 0 mm 2 mps 750 mmHg 44%

    Mañana, 24 Septiembre, Lunes

    Tiempo Temperatura Precipitaciones Viento Presión Humedad
    00:00 +31°C° 0 mm 2 mps 749 mmHg 46%
    01:00 +30°C° 0 mm 2 mps 749 mmHg 48%
    02:00 +30°C° 0 mm 2 mps 749 mmHg 51%
    03:00 +30°C° 0 mm 2 mps 749 mmHg 51%
    04:00 +29°C° 0 mm 2 mps 749 mmHg 52%
    05:00 +29°C° 0 mm 2 mps 749 mmHg 52%
    06:00 +30°C° 0 mm 2 mps 749 mmHg 48%
    07:00 +32°C° 0 mm 2 mps 749 mmHg 43%
    08:00 +34°C° 0 mm 3 mps 749 mmHg 39%
    09:00 +36°C° 0 mm 3 mps 749 mmHg 34%
    10:00 +37°C° 0 mm 3 mps 749 mmHg 29%
    11:00 +39°C° 0 mm 2 mps 749 mmHg 24%
    12:00 +40°C° 0 mm 3 mps 748 mmHg 21%
    13:00 +42°C° 0 mm 3 mps 747 mmHg 19%
    14:00 +43°C° 0 mm 3 mps 747 mmHg 17%
    15:00 +42°C° 0 mm 3 mps 747 mmHg 17%
    16:00 +42°C° 0 mm 3 mps 747 mmHg 18%
    17:00 +40°C° 0 mm 3 mps 746 mmHg 19%
    18:00 +39°C° 0 mm 3 mps 747 mmHg 22%
    19:00 +37°C° 0 mm 2 mps 747 mmHg 25%
    20:00 +36°C° 0 mm 2 mps 748 mmHg 28%
    21:00 +35°C° 0 mm 2 mps 748 mmHg 32%
    22:00 +34°C° 0 mm 2 mps 748 mmHg 35%
    23:00 +32°C° 0 mm 2 mps 748 mmHg 39%

    Pasado mañana, 25 Septiembre, Martes

    Tiempo Temperatura Precipitaciones Viento Presión Humedad
    00:00 +31°C° 0 mm 2 mps 748 mmHg 42%
    01:00 +31°C° 0 mm 2 mps 748 mmHg 45%
    02:00 +30°C° 0 mm 2 mps 748 mmHg 49%
    03:00 +30°C° 0 mm 2 mps 747 mmHg 51%
    04:00 +29°C° 0 mm 2 mps 747 mmHg 53%
    05:00 +29°C° 0 mm 2 mps 747 mmHg 55%
    06:00 +30°C° 0 mm 2 mps 747 mmHg 51%
    07:00 +31°C° 0 mm 2 mps 748 mmHg 48%
    08:00 +32°C° 0 mm 2 mps 748 mmHg 44%
    09:00 +35°C° 0 mm 2 mps 748 mmHg 39%
    10:00 +36°C° 0 mm 2 mps 747 mmHg 33%
    11:00 +38°C° 0 mm 2 mps 747 mmHg 28%
    12:00 +39°C° 0 mm 3 mps 746 mmHg 25%
    13:00 +40°C° 0 mm 3 mps 746 mmHg 23%
    14:00 +42°C° 0 mm 4 mps 745 mmHg 20%
    15:00 +41°C° 0 mm 4 mps 745 mmHg 22%
    16:00 +40°C° 0 mm 4 mps 745 mmHg 24%
    17:00 +38°C° 0 mm 4 mps 745 mmHg 26%
    18:00 +37°C° 0 mm 4 mps 746 mmHg 31%
    19:00 +36°C° 0 mm 3 mps 746 mmHg 36%
    20:00 +34°C° 0 mm 3 mps 747 mmHg 41%
    21:00 +33°C° 0 mm 3 mps 747 mmHg 46%
    22:00 +32°C° 0 mm 2 mps 747 mmHg 50%
    23:00 +31°C° 0 mm 2 mps 747 mmHg 54%

    26 Septiembre, Miércoles

    Tiempo Temperatura Precipitaciones Viento Presión Humedad
    00:00 +30°C° 0 mm 2 mps 747 mmHg 57%
    01:00 +30°C° 0 mm 2 mps 746 mmHg 59%
    02:00 +29°C° 0 mm 2 mps 746 mmHg 62%
    03:00 +28°C° 0 mm 2 mps 746 mmHg 64%
    04:00 +28°C° 0 mm 2 mps 746 mmHg 66%
    05:00 +27°C° 0 mm 2 mps 746 mmHg 68%
    06:00 +28°C° 0 mm 2 mps 746 mmHg 63%
    07:00 +29°C° 0 mm 2 mps 747 mmHg 58%
    08:00 +30°C° 0 mm 2 mps 747 mmHg 53%
    09:00 +31°C° 0 mm 2 mps 747 mmHg 46%
    10:00 +34°C° 0 mm 3 mps 746 mmHg 38%
    11:00 +35°C° 0 mm 3 mps 746 mmHg 30%
    12:00 +36°C° 0 mm 3 mps 746 mmHg 27%
    13:00 +37°C° 0 mm 3 mps 745 mmHg 24%
    14:00 +38°C° 0 mm 4 mps 745 mmHg 20%
    15:00 +37°C° 0 mm 4 mps 745 mmHg 21%
    16:00 +37°C° 0 mm 4 mps 745 mmHg 22%
    17:00 +36°C° 0 mm 4 mps 745 mmHg 22%
    18:00 +35°C° 0 mm 3 mps 745 mmHg 25%
    19:00 +34°C° 0 mm 2 mps 746 mmHg 28%
    20:00 +32°C° 0 mm 2 mps 746 mmHg 31%
    21:00 +31°C° 0 mm 2 mps 746 mmHg 33%
    22:00 +30°C° 0 mm 2 mps 746 mmHg 36%
    23:00 +30°C° 0 mm 2 mps 746 mmHg 38%

    27 Septiembre, Jueves

    Tiempo Temperatura Precipitaciones Viento Presión Humedad
    00:00 +29°C° 0 mm 1 mps 746 mmHg 39%
    01:00 +29°C° 0 mm 1 mps 746 mmHg 40%
    02:00 +28°C° 0 mm 1 mps 746 mmHg 42%
    03:00 +28°C° 0 mm 1 mps 746 mmHg 43%
    04:00 +27°C° 0 mm 2 mps 746 mmHg 44%
    05:00 +27°C° 0 mm 2 mps 746 mmHg 45%
    06:00 +28°C° 0 mm 2 mps 746 mmHg 45%
    07:00 +29°C° 0 mm 2 mps 747 mmHg 45%
    08:00 +29°C° 0 mm 2 mps 747 mmHg 45%
    09:00 +31°C° 0 mm 2 mps 747 mmHg 42%
    10:00 +32°C° 0 mm 2 mps 747 mmHg 38%
    11:00 +34°C° 0 mm 2 mps 746 mmHg 34%
    12:00 +35°C° 0 mm 2 mps 746 mmHg 32%
    13:00 +36°C° 0 mm 3 mps 745 mmHg 29%
    14:00 +37°C° 0 mm 3 mps 745 mmHg 27%
    15:00 +36°C° 0 mm 4 mps 745 mmHg 28%
    16:00 +36°C° 0 mm 4 mps 745 mmHg 29%
    17:00 +35°C° 0 mm 4 mps 746 mmHg 30%
    18:00 +34°C° 0 mm 3 mps 746 mmHg 32%
    19:00 +33°C° 0 mm 3 mps 747 mmHg 35%
    20:00 +31°C° 0 mm 3 mps 748 mmHg 37%
    21:00 +30°C° 0 mm 3 mps 748 mmHg 41%
    22:00 +29°C° 0 mm 2 mps 748 mmHg 45%
    23:00 +29°C° 0 mm 2 mps 748 mmHg 50%

    28 Septiembre, Viernes

    Tiempo Temperatura Precipitaciones Viento Presión Humedad
    00:00 +28°C° 0 mm 3 mps 748 mmHg 54%
    01:00 +27°C° 0 mm 3 mps 748 mmHg 59%
    02:00 +27°C° 0 mm 3 mps 748 mmHg 64%
    03:00 +26°C° 0 mm 3 mps 748 mmHg 66%
    04:00 +26°C° 0 mm 2 mps 748 mmHg 68%
    05:00 +25°C° 0 mm 2 mps 748 mmHg 70%
    06:00 +26°C° 0 mm 2 mps 749 mmHg 67%
    07:00 +27°C° 0 mm 2 mps 749 mmHg 63%
    08:00 +28°C° 0 mm 2 mps 749 mmHg 59%
    09:00 +29°C° 0.1 mm 2 mps 749 mmHg 53%
    10:00 +31°C° 0.1 mm 2 mps 749 mmHg 48%
    11:00 +32°C° 0.1 mm 2 mps 749 mmHg 42%
    12:00 +34°C° 0 mm 2 mps 748 mmHg 40%
    13:00 +34°C° 0 mm 2 mps 748 mmHg 37%
    14:00 +35°C° 0 mm 2 mps 747 mmHg 35%
    15:00 +35°C° 0 mm 3 mps 747 mmHg 35%
    16:00 +35°C° 0 mm 3 mps 747 mmHg 35%
    17:00 +35°C° 0 mm 3 mps 747 mmHg 36%
    18:00 +34°C° 0 mm 3 mps 748 mmHg 38%
    19:00 +33°C° 0 mm 3 mps 748 mmHg 41%
    20:00 +31°C° 0 mm 3 mps 748 mmHg 44%
    21:00 +30°C° 0 mm 2 mps 748 mmHg 46%
    22:00 +30°C° 0 mm 2 mps 748 mmHg 48%
    23:00 +29°C° 0 mm 2 mps 748 mmHg 50%
    Mostrar más